Johns Lake Weather Center

Moon Phase Calendar



Johns Lake Water Level
Online Cameras

 


      

Current Conditions in Oakland
7/7/2022 9:23:11 AM

84°F
Feels Like 92
Clouds
Humidity
71%
Pressure
30.06"
Wind
4 mph (SSW)
Dew Point
74°F
UV Index
2/10 (Low)
Visibility
6 mi

Hourly Forecast

Date & Time Thu, Jul 7
9:00 AM
Thu, Jul 7
10:00 AM
Thu, Jul 7
11:00 AM
Thu, Jul 7
12:00 PM
Thu, Jul 7
1:00 PM
Thu, Jul 7
2:00 PM
Thu, Jul 7
3:00 PM
Thu, Jul 7
4:00 PM
Thu, Jul 7
5:00 PM
Thu, Jul 7
6:00 PM
Thu, Jul 7
7:00 PM
Thu, Jul 7
8:00 PM
Thu, Jul 7
9:00 PM
Thu, Jul 7
10:00 PM
Thu, Jul 7
11:00 PM
Fri, Jul 8
12:00 AM
Fri, Jul 8
1:00 AM
Fri, Jul 8
2:00 AM
Fri, Jul 8
3:00 AM
Fri, Jul 8
4:00 AM
Fri, Jul 8
5:00 AM
Fri, Jul 8
6:00 AM
Fri, Jul 8
7:00 AM
Fri, Jul 8
8:00 AM
Fri, Jul 8
9:00 AM
Fri, Jul 8
10:00 AM
Fri, Jul 8
11:00 AM
Fri, Jul 8
12:00 PM
Fri, Jul 8
1:00 PM
Fri, Jul 8
2:00 PM
Fri, Jul 8
3:00 PM
Fri, Jul 8
4:00 PM
Fri, Jul 8
5:00 PM
Fri, Jul 8
6:00 PM
Fri, Jul 8
7:00 PM
Fri, Jul 8
8:00 PM
Fri, Jul 8
9:00 PM
Fri, Jul 8
10:00 PM
Fri, Jul 8
11:00 PM
Sat, Jul 9
12:00 AM
Sat, Jul 9
1:00 AM
Sat, Jul 9
2:00 AM
Sat, Jul 9
3:00 AM
Sat, Jul 9
4:00 AM
Sat, Jul 9
5:00 AM
Sat, Jul 9
6:00 AM
Sat, Jul 9
7:00 AM
Sat, Jul 9
8:00 AM
Condition
Clouds

Clouds

Clouds

Rain

Rain

Rain

Rain

Clouds

Rain

Rain

Rain

Clouds

Clouds

Clouds

Clouds

Clouds

Clouds

Clouds

Clouds

Clouds

Clouds

Clouds

Clouds

Clouds

Clear

Clouds

Clouds

Clouds

Clouds

Clouds

Clouds

Clouds

Clouds

Clouds

Clouds

Clouds

Clouds

Clouds

Rain

Rain

Clouds

Clouds

Clouds

Clouds

Clouds

Clouds

Clouds

Clouds
Temperature 84°F84°F86°F87°F89°F91°F92°F92°F91°F88°F86°F85°F84°F83°F82°F81°F80°F79°F78°F78°F77°F77°F77°F79°F82°F85°F87°F90°F92°F93°F94°F95°F95°F94°F89°F85°F84°F84°F82°F81°F80°F79°F79°F78°F78°F77°F78°F79°F
Feels Like 92°F91°F93°F95°F97°F99°F100°F99°F98°F96°F93°F91°F90°F88°F87°F85°F80°F79°F80°F79°F79°F78°F78°F79°F86°F89°F92°F94°F96°F97°F97°F97°F96°F95°F94°F91°F90°F89°F87°F86°F84°F79°F80°F80°F79°F79°F79°F79°F
Cloudiness 100%100%100%100%100%94%48%56%68%76%81%84%84%72%65%54%51%53%33%34%45%40%38%36%10%11%11%11%12%13%83%87%91%87%75%74%16%15%33%39%52%60%100%100%100%100%100%100%
Visibility 6 mi6 mi6 mi6 mi6 mi6 mi6 mi6 mi6 mi6 mi6 mi6 mi6 mi6 mi6 mi6 mi6 mi6 mi6 mi6 mi6 mi6 mi6 mi6 mi6 mi6 mi6 mi6 mi6 mi6 mi6 mi6 mi6 mi6 mi6 mi6 mi6 mi6 mi6 mi6 mi6 mi6 mi6 mi6 mi6 mi6 mi6 mi6 mi
Precipitation 0%11%18%44%76%76%79%83%83%69%65%79%17%18%18%18%10%10%1%0%1%1%0%0%0%0%0%0%0%0%5%8%10%8%8%8%1%1%38%27%28%15%4%10%6%6%0%0%
Humidity 71%70%67%62%58%54%52%50%52%60%65%67%69%71%74%77%79%80%81%82%83%84%84%77%68%61%56%51%46%42%39%35%34%36%52%63%64%66%72%76%79%81%81%82%82%82%82%78%
Dew Point 74°F74°F73°F73°F73°F72°F72°F71°F71°F73°F73°F73°F73°F73°F73°F73°F72°F72°F72°F72°F72°F71°F71°F71°F70°F70°F70°F69°F68°F67°F65°F64°F62°F63°F69°F71°F71°F71°F72°F73°F73°F73°F72°F72°F72°F72°F72°F72°F
Pressure 30.06"30.06"30.06"30.03"30.03"30.03"30"30"29.97"29.97"29.97"30"30"30.03"30.03"30.03"30.03"30.03"30.03"30.03"30.03"30.03"30.06"30.06"30.09"30.09"30.09"30.09"30.09"30.06"30.06"30.06"30.03"30"30.03"30.06"30.03"30.06"30.09"30.09"30.09"30.09"30.06"30.06"30.06"30.06"30.09"30.09"
Wind Speed 6.3 mph6.1 mph5.7 mph4.2 mph3.3 mph4.4 mph5.7 mph5.5 mph4.9 mph6.6 mph8.9 mph9.4 mph9.3 mph8.1 mph8.4 mph7.6 mph7.5 mph6.7 mph5.9 mph6.5 mph6.6 mph5.9 mph6.6 mph8.4 mph8.7 mph8 mph7.1 mph6.4 mph6.4 mph6.5 mph7.2 mph7.9 mph8.5 mph9.6 mph12.2 mph10.6 mph10 mph7.9 mph6.9 mph7.2 mph7.1 mph6.1 mph6 mph5.9 mph6 mph5.4 mph5.6 mph5.2 mph
Wind
Direction
185°
S
200°
SSW
214°
SW
223°
SW
206°
SSW
187°
S
185°
S
186°
S
172°
S
162°
SSE
167°
SSE
167°
SSE
158°
SSE
156°
SSE
162°
SSE
159°
SSE
163°
SSE
163°
SSE
161°
SSE
156°
SSE
162°
SSE
167°
SSE
164°
SSE
169°
S
174°
S
180°
S
180°
S
178°
S
167°
SSE
164°
SSE
163°
SSE
166°
SSE
167°
SSE
166°
SSE
150°
SSE
153°
SSE
152°
SSE
150°
SSE
170°
S
171°
S
161°
SSE
155°
SSE
161°
SSE
170°
S
169°
S
177°
S
179°
S
193°
SSW

Daily Forecast

Date High Low Precip. Humidity
Today
Jul 7

Rain
92 °F
78 °F
83%
58%
Friday
Jul 8

Rain
95 °F
77 °F
38%
46%
Saturday
Jul 9

Rain
92 °F
78 °F
80%
49%
Sunday
Jul 10

Rain
88 °F
77 °F
87%
59%
Monday
Jul 11

Rain
94 °F
77 °F
69%
41%
Tuesday
Jul 12

Rain
93 °F
78 °F
48%
47%
Wednesday
Jul 13

Rain
96 °F
79 °F
63%
43%
Thursday
Jul 14

Rain
96 °F
79 °F
100%
42%
Friday
Jul 15

Rain
94 °F
77 °F
98%
44%
Saturday
Jul 16

Rain
93 °F
78 °F
100%
45%
Sunday
Jul 17

Rain
94 °F
77 °F
97%
40%
Monday
Jul 18

Rain
93 °F
76 °F
73%
35%
Tuesday
Jul 19

Clouds
93 °F
75 °F
1%
35%
Wednesday
Jul 20

Rain
94 °F
76 °F
98%
41%
Thursday
Jul 21

Rain
95 °F
78 °F
95%
41%
Friday
Jul 22

Clouds
96 °F
78 °F
40%
38%

Temperature 8-14 Day Outlook



Precipitation 8-14 Day Outlook




Quick Links
Johns Lake News
Johns Lake Photos
Johns Lake Videos




About Us
Contact Us
Site Map
Search Site
Advertise With Us
   
Johns.LakesOnline.com
THE JOHNS LAKE WEBSITE

Copyright 2022, Lakes Online
Privacy    |    Legal